Total_Precipitation_Accumulation
0.05 0.10 0.32 0.44 0.41 0.37 0.39 0.41 0.41 0.37 0.36 0.41 0.43 0.45 0.46 0.47 0.48 0.46 0.42 0.43 0.45 0.44 0.47 0.52 0.54 0.55 0.51 0.44 0.37 0.34 0.30 0.29 0.29 0.31 0.34 0.37 0.37 0.36 0.35 0.32 0.29 0.34 0.45
0.07 0.10 0.27 0.35 0.36 0.37 0.40 0.41 0.40 0.34 0.33 0.39 0.42 0.45 0.46 0.46 0.47 0.46 0.46 0.48 0.50 0.50 0.51 0.51 0.51 0.52 0.51 0.43 0.38 0.34 0.31 0.28 0.22 0.20 0.21 0.22 0.32 0.42 0.40 0.37 0.36 0.45 0.46
0.05 0.08 0.20 0.29 0.31 0.34 0.39 0.38 0.35 0.33 0.31 0.33 0.39 0.47 0.47 0.46 0.45 0.47 0.47 0.48 0.52 0.56 0.57 0.53 0.53 0.53 0.46 0.41 0.39 0.35 0.33 0.26 0.18 0.14 0.13 0.17 0.32 0.45 0.42 0.41 0.41 0.47 0.48
0.02 0.06 0.13 0.22 0.28 0.34 0.38 0.39 0.36 0.34 0.34 0.35 0.38 0.44 0.49 0.46 0.42 0.43 0.46 0.49 0.56 0.58 0.60 0.57 0.55 0.55 0.46 0.39 0.37 0.35 0.35 0.28 0.18 0.12 0.07 0.14 0.35 0.53 0.52 0.53 0.50 0.51 0.51
0.02 0.04 0.11 0.21 0.29 0.36 0.40 0.41 0.40 0.38 0.39 0.41 0.42 0.45 0.48 0.51 0.47 0.44 0.42 0.46 0.56 0.58 0.59 0.60 0.57 0.55 0.49 0.43 0.38 0.38 0.40 0.35 0.21 0.10 0.06 0.10 0.30 0.61 0.62 0.59 0.56 0.53 0.50
0.02 0.04 0.12 0.23 0.34 0.39 0.43 0.46 0.43 0.43 0.45 0.45 0.45 0.49 0.52 0.53 0.51 0.51 0.48 0.45 0.45 0.50 0.56 0.59 0.59 0.60 0.56 0.47 0.45 0.47 0.49 0.43 0.20 0.07 0.06 0.09 0.27 0.62 0.67 0.61 0.56 0.51 0.49
0.03 0.06 0.14 0.27 0.38 0.43 0.46 0.51 0.49 0.49 0.52 0.50 0.50 0.53 0.56 0.57 0.59 0.57 0.54 0.48 0.41 0.41 0.45 0.52 0.53 0.55 0.56 0.51 0.51 0.54 0.59 0.45 0.19 0.13 0.11 0.12 0.27 0.71 0.88 0.73 0.60 0.53 0.51
0.04 0.08 0.16 0.30 0.40 0.46 0.51 0.57 0.55 0.56 0.62 0.61 0.61 0.59 0.59 0.59 0.61 0.59 0.55 0.50 0.45 0.44 0.45 0.47 0.49 0.53 0.56 0.55 0.54 0.57 0.59 0.38 0.18 0.17 0.17 0.19 0.38 0.84 1.01 1.00 0.80 0.62 0.55
0.05 0.09 0.16 0.28 0.39 0.48 0.55 0.60 0.61 0.60 0.64 0.65 0.65 0.64 0.63 0.63 0.66 0.67 0.62 0.56 0.51 0.50 0.49 0.46 0.44 0.44 0.47 0.52 0.53 0.50 0.46 0.34 0.19 0.23 0.22 0.30 0.40 0.82 1.01 1.11 1.00 0.80 0.65
0.09 0.13 0.20 0.31 0.40 0.47 0.54 0.61 0.62 0.61 0.67 0.69 0.70 0.67 0.66 0.68 0.71 0.73 0.66 0.58 0.54 0.52 0.48 0.44 0.42 0.39 0.37 0.37 0.37 0.36 0.30 0.26 0.18 0.25 0.37 0.36 0.41 0.86 1.07 1.13 1.05 0.95 0.83
0.14 0.17 0.24 0.37 0.46 0.51 0.54 0.55 0.63 0.69 0.74 0.75 0.75 0.70 0.67 0.64 0.61 0.58 0.56 0.58 0.57 0.55 0.50 0.46 0.44 0.40 0.35 0.30 0.27 0.25 0.21 0.16 0.18 0.30 0.34 0.35 0.53 0.96 1.14 1.15 1.08 1.00 0.96
0.14 0.17 0.25 0.36 0.45 0.55 0.57 0.60 0.70 0.71 0.72 0.73 0.70 0.71 0.67 0.61 0.56 0.52 0.50 0.50 0.54 0.56 0.56 0.54 0.49 0.42 0.35 0.27 0.29 0.30 0.18 0.13 0.14 0.16 0.18 0.26 0.57 1.01 1.17 1.14 1.14 1.12 1.09
0.16 0.21 0.27 0.37 0.47 0.56 0.60 0.62 0.66 0.68 0.69 0.72 0.75 0.74 0.75 0.73 0.70 0.68 0.64 0.62 0.55 0.51 0.52 0.53 0.52 0.45 0.40 0.35 0.35 0.31 0.22 0.18 0.15 0.12 0.12 0.19 0.35 0.63 0.95 1.10 1.17 1.19 1.21
0.21 0.26 0.31 0.40 0.49 0.56 0.63 0.67 0.65 0.66 0.65 0.66 0.73 0.76 0.76 0.74 0.71 0.71 0.67 0.62 0.58 0.55 0.54 0.52 0.49 0.43 0.40 0.35 0.33 0.28 0.25 0.23 0.19 0.17 0.13 0.15 0.23 0.33 0.55 0.82 1.00 1.14 1.24
0.23 0.29 0.34 0.43 0.49 0.55 0.64 0.70 0.73 0.69 0.64 0.62 0.65 0.70 0.71 0.70 0.68 0.65 0.61 0.57 0.54 0.52 0.50 0.45 0.40 0.34 0.32 0.32 0.30 0.27 0.26 0.25 0.25 0.23 0.19 0.19 0.19 0.23 0.34 0.55 0.80 1.02 1.21
0.21 0.27 0.34 0.43 0.53 0.59 0.62 0.65 0.69 0.73 0.70 0.66 0.64 0.60 0.63 0.65 0.66 0.66 0.65 0.63 0.58 0.52 0.50 0.47 0.42 0.36 0.31 0.29 0.27 0.25 0.25 0.24 0.25 0.26 0.24 0.25 0.23 0.23 0.29 0.42 0.60 0.90 1.15
0.22 0.29 0.39 0.47 0.58 0.67 0.68 0.68 0.69 0.73 0.76 0.73 0.69 0.67 0.63 0.60 0.61 0.67 0.69 0.66 0.61 0.56 0.52 0.51 0.50 0.47 0.42 0.35 0.28 0.24 0.22 0.21 0.21 0.22 0.24 0.27 0.28 0.27 0.28 0.36 0.45 0.67 0.97
0.25 0.31 0.42 0.50 0.60 0.70 0.75 0.77 0.74 0.74 0.77 0.80 0.76 0.75 0.71 0.67 0.66 0.69 0.72 0.70 0.65 0.62 0.59 0.55 0.52 0.50 0.46 0.41 0.35 0.29 0.25 0.22 0.19 0.18 0.18 0.21 0.28 0.31 0.30 0.32 0.37 0.50 0.77
0.23 0.30 0.42 0.53 0.56 0.63 0.76 0.83 0.82 0.81 0.83 0.84 0.83 0.79 0.76 0.71 0.69 0.72 0.75 0.75 0.74 0.72 0.67 0.63 0.58 0.51 0.46 0.42 0.39 0.34 0.29 0.25 0.22 0.21 0.18 0.17 0.20 0.27 0.33 0.34 0.36 0.39 0.54
0.23 0.30 0.39 0.54 0.58 0.63 0.75 0.92 0.94 0.91 0.91 0.90 0.84 0.78 0.77 0.76 0.71 0.69 0.72 0.74 0.78 0.76 0.71 0.66 0.62 0.54 0.48 0.44 0.43 0.39 0.32 0.27 0.24 0.22 0.20 0.18 0.18 0.20 0.29 0.36 0.38 0.34 0.37
0.24 0.29 0.38 0.54 0.60 0.68 0.76 0.86 0.92 0.86 0.87 0.88 0.83 0.80 0.76 0.78 0.80 0.76 0.73 0.73 0.75 0.76 0.69 0.62 0.60 0.60 0.57 0.54 0.57 0.52 0.44 0.35 0.30 0.26 0.23 0.20 0.18 0.17 0.21 0.32 0.40 0.38 0.34
0.23 0.25 0.31 0.47 0.58 0.64 0.69 0.72 0.76 0.78 0.81 0.84 0.80 0.83 0.83 0.80 0.85 0.82 0.75 0.74 0.74 0.74 0.71 0.64 0.60 0.60 0.60 0.59 0.62 0.64 0.57 0.50 0.41 0.31 0.28 0.25 0.21 0.20 0.22 0.27 0.36 0.43 0.42
0.21 0.22 0.27 0.39 0.53 0.61 0.67 0.81 0.86 0.93 1.01 1.00 0.92 0.84 0.82 0.84 0.84 0.88 0.82 0.75 0.75 0.76 0.73 0.66 0.60 0.59 0.60 0.55 0.55 0.73 0.76 0.55 0.36 0.28 0.27 0.26 0.25 0.25 0.24 0.27 0.33 0.40 0.46
0.17 0.20 0.25 0.39 0.52 0.60 0.68 0.80 0.85 0.85 0.90 0.91 0.84 0.80 0.76 0.78 0.83 0.82 0.85 0.83 0.78 0.76 0.73 0.69 0.63 0.60 0.62 0.63 0.58 0.57 0.62 0.62 0.59 0.41 0.26 0.25 0.27 0.29 0.28 0.27 0.30 0.36 0.42
0.17 0.22 0.26 0.36 0.53 0.64 0.71 0.74 0.79 0.78 0.74 0.79 0.89 0.89 0.85 0.82 0.82 0.82 0.81 0.84 0.83 0.77 0.73 0.72 0.73 0.71 0.70 0.69 0.64 0.57 0.53 0.49 0.51 0.60 0.41 0.28 0.30 0.30 0.32 0.34 0.34 0.37 0.41
0.19 0.26 0.32 0.36 0.47 0.64 0.76 0.78 0.76 0.76 0.75 0.80 0.89 0.94 0.95 0.91 0.85 0.81 0.80 0.79 0.80 0.78 0.70 0.68 0.71 0.75 0.75 0.71 0.66 0.60 0.61 0.60 0.52 0.57 0.52 0.36 0.35 0.33 0.34 0.39 0.43 0.44 0.44